#timestamp,LO_Frequency,Hit 
1504425615.1,286047001.7,N
1504425635.9,286047002.2,N
1504425655.7,286047004.7,N
1504425675.5,286047005.7,N
1504425695.4,286047001.3,N
1504425715.2,286047003.0,N
1504425735.0,286047003.4,N
1504425735.9,286047003.4,N
1504425755.8,286046998.1,N
1504425775.6,286046997.2,N
1504425795.4,286047000.1,N
1504425815.3,286047003.7,N
1504425835.1,286046999.0,N
1504425836.0,286046999.0,N
1504425855.8,286046998.7,N
1504425875.6,286047000.4,N
1504425895.5,286047001.2,N
1504425915.3,286047003.8,N
1504425935.1,286047005.6,N
1504425955.9,286047005.3,N
1504425975.7,286047007.0,N
1504425995.5,286047004.7,N
1504426015.4,286047004.2,N
1504426035.2,286047000.4,N
1504426055.0,286047005.9,N
1504426055.9,286047005.9,N
1504426075.8,286047006.2,N
1504426095.6,286047008.6,P
1504426115.4,286047003.6,N
1504426135.3,286047001.5,N
1504426155.1,286046998.3,N
1504426156.0,286046998.3,N
1504426175.8,286047000.6,N
1504426195.7,286046999.0,N
1504426215.5,286046997.3,N
1504426235.3,286046991.8,N
1504426255.2,286046997.3,N
1504426275.9,286046997.0,N
1504426295.7,286046997.6,N
1504426315.6,286047002.4,N
1504426335.4,286047000.0,N
1504426355.2,286046995.2,N
1504426375.0,286047000.3,N
1504426375.9,286047000.3,N
1504426395.8,286047001.0,N
1504426415.6,286046998.5,N
1504426435.4,286046994.9,N
1504426455.3,286047002.6,N
1504426475.1,286046999.9,N
1504426495.8,286047002.8,N
1504426515.7,286046999.0,N
1504426535.5,286046998.0,N
1504426555.3,286046996.0,N
1504426575.2,286046992.6,N
1504426595.9,286046995.9,N
1504426615.7,286046994.6,N
1504426635.5,286047000.3,N
1504426655.4,286047002.4,N
1504426675.2,286047000.7,N
1504426695.0,286046996.5,N
1504426695.9,286046996.5,N
1504426715.8,286046993.7,N
1504426735.6,286046995.5,N
1504426755.4,286046995.9,N
1504426775.3,286046992.0,N
1504426795.1,286046995.2,N
1504426796.0,286046995.2,N
1504426815.8,286047000.4,N
1504426835.7,286047003.4,N
1504426855.5,286047001.8,N
1504426875.3,286046998.9,N
1504426895.2,286046999.1,N
1504426915.9,286046996.9,N
1504426935.7,286047000.4,N
1504426955.6,286046999.1,N
1504426975.4,286046996.9,N
1504426995.2,286046996.9,N
1504427015.0,286046995.5,N
1504427015.9,286046995.5,N
1504427035.8,286046994.1,N
1504427055.6,286046995.1,N
1504427075.4,286046997.0,N
1504427095.3,286046998.5,N
1504427115.1,286046995.2,N
1504427135.8,286046996.4,N
1504427155.7,286046994.3,N
1504427175.5,286046991.9,N
1504427195.3,286046992.6,N
1504427215.2,286046990.4,P
1504427235.9,286046996.0,N
1504427255.7,286046998.8,N
1504427275.6,286047003.1,N
1504427295.4,286047002.0,N
1504427315.2,286046996.9,N
1504427335.1,286046994.9,N
1504427336.0,286046994.9,N
1504427355.8,286046998.1,N
1504427375.6,286046998.8,N
1504427395.4,286046999.9,N
1504427415.3,286047002.3,N
1504427435.1,286046998.9,N
1504427455.8,286046994.9,N
1504427475.7,286046997.4,N
1504427495.5,286046999.0,N
1504427515.3,286046993.3,N
1504427535.2,286046995.0,N
1504427555.9,286046996.3,N
1504427575.7,286046995.1,N
1504427595.6,286046996.1,N
1504427615.4,286046993.1,N
1504427635.2,286046992.2,N
1504427655.1,286046994.0,N
1504427656.0,286046994.0,N
1504427675.8,286046996.4,N
1504427695.6,286046995.1,N
1504427715.4,286046998.0,N
1504427735.3,286046995.7,N
1504427755.1,286047000.8,N
1504427775.8,286047000.7,N
1504427795.7,286046997.2,N
1504427815.5,286046998.6,N
1504427835.3,286046990.6,P
1504427855.2,286046992.0,N
1504427875.0,286046993.8,N
1504427875.9,286046993.8,N
1504427895.7,286046996.3,N
1504427915.6,286046998.0,N
1504427935.4,286046993.8,N
1504427955.2,286046994.4,N
1504427975.1,286046991.4,P
1504427976.0,286046991.4,P
1504427995.8,286046997.4,N
1504428015.6,286046999.8,N
1504428035.5,286047003.2,N
1504428055.3,286047003.2,N
1504428075.1,286047003.5,N
1504428095.9,286047004.0,N
1504428115.7,286046999.7,N
1504428135.5,286047000.9,N
1504428155.4,286047002.3,N
1504428175.2,286047001.8,N
1504428195.0,286047001.1,N
1504428195.9,286047001.1,N
1504428215.8,286046999.5,N
1504428235.6,286046996.9,N
1504428255.4,286047000.6,N
1504428275.3,286047000.2,N
1504428295.1,286047000.5,N
1504428296.0,286047000.5,N
1504428315.8,286047000.7,N
1504428335.7,286047000.6,N
1504428355.5,286047000.3,N
1504428375.3,286047002.4,N
1504428395.1,286047002.8,N
1504428415.9,286047002.1,N
1504428435.7,286047003.0,N
1504428455.5,286047004.3,N
1504428475.4,286047002.8,N
1504428495.2,286047000.1,N
1504428515.0,286047000.7,N
1504428515.9,286047000.7,N
1504428535.8,286046999.7,N
1504428555.6,286046999.5,N
1504428575.4,286047003.9,N
1504428595.3,286047001.1,N
1504428615.1,286047000.4,N
1504428616.0,286047000.4,N
1504428635.8,286046999.9,N
1504428655.7,286047006.0,P
1504428675.5,286046999.4,N
1504428695.3,286046995.4,N
1504428715.2,286047007.7,N
1504428735.9,286047026.0,P
1504428755.7,286047023.3,N
1504428775.6,286047030.6,N
1504428795.4,286047045.4,P
1504428815.2,286047013.4,N
1504428835.1,286047005.4,N
1504428836.0,286047005.4,N
1504428855.8,286046996.9,N
1504428875.6,286046996.4,N
1504428895.5,286046994.2,N
1504428915.3,286046988.9,N
1504428935.1,286046986.7,N
1504428955.9,286046985.6,N
1504428975.7,286046990.0,N
1504428995.5,286046987.0,N
1504429015.4,286046987.2,N
1504429035.2,286046984.2,N
1504429055.0,286046984.7,N
1504429055.9,286046984.7,N
1504429075.7,286046981.3,N
1504429095.6,286046981.1,N
1504429115.4,286046983.9,N
1504429135.2,286046982.5,N
1504429155.1,286046979.3,N
1504429156.0,286046979.3,N
1504429175.8,286046982.0,N
1504429195.6,286046982.5,N
